INMARSAT 4-F1

Last updated on Sun Jun 21 2026 00:03:03 GMT+0000 (Coordinated Universal Time)

1 28628U 05009A 26171.35600177 .00000026 00000+0 00000+0 0 9992 2 28628 5.1732 42.7714 0002706 45.6778 126.3856 1.00271541 77706
UTC large
Height (km)
Speed (km/s)
/
Latitude / Longitude
Inclination (degrees)
Orbital Period (minutes)
Azimuth
Elevation
Range (km)
Doppler Factor

Next 0 passes for location: London (51.5072 / 0.1276)

No passes found over London.
INMARSAT 4-F1